Flag for U.S.A. Weather past 2 weeks in New York, New York, U.S.A.

Now
71 °F

Overcast.


Feels Like: 75 °F
Forecast: 67 / 76 °F
Wind: 7 mph from East

Location: New York City - Central Park

Current Time: Aug 22, 2014 at 11:58:19 PM

Latest Report: Aug 22, 2014 at 10:51 PM


Visibility: 10 mi

Pressure: 30.06 "Hg

Humidity: 68%

Dew point: 60 °F

Location of New YorkLocation

Historic Weather in New York — Graph

°F

New York temperature yesterday

Maximum temperature yesterday: 82 °F (at 1:51 PM)
Minimum temperature yesterday: 66 °F (at 5:51 AM)
Average temperature yesterday: 74 °F

Past Weeks' High & Low Weather Summary

 TemperatureHumidityPressure
High87 °F (Aug 10, 1:51 PM)93% (Aug 13, 1:51 AM)30.14 "Hg (Aug 13, 1:51 AM)
Low61 °F (Aug 15, 5:51 AM)27% (Aug 9, 1:51 PM)29.65 "Hg (Aug 13, 4:51 PM)
Average73 °F58%29.97 "Hg
* Reported Aug 7 9:51 PM — Aug 22 9:51 PM, New York, Weather by CustomWeather, © 2014

Note: Actual official high and low records may vary slightly from our data, if they occured in-between our weather recording intervals... More about our weather records

Advertising

New York weather history for previous 24 hours

 ConditionsComfort  
Time TempWeatherWind HumidityBarometerVisibility
9:51 PM
Aug 22
71 °FOvercast.7 mph63%30.05 "Hg10 mi
8:51 PM70 °FOvercast.7 mph66%30.05 "Hg10 mi
7:51 PM70 °FOvercast.No wind71%30.03 "Hg10 mi
6:51 PM71 °FMostly cloudy.No wind66%30.03 "Hg10 mi
5:51 PM69 °FOvercast.3 mph70%30.03 "Hg10 mi
4:51 PM71 °FLight rain. More clouds than sun.5 mph73%30.02 "Hg6 mi
3:51 PM75 °FMore clouds than sun.6 mph64%30.01 "Hg10 mi
2:51 PM76 °FOvercast.7 mph60%30.01 "Hg10 mi
1:51 PM77 °FPartly sunny.6 mph56%30.03 "Hg10 mi
12:51 PM77 °FScattered clouds.3 mph56%30.03 "Hg10 mi
11:51 AM74 °FOvercast.7 mph64%30.04 "Hg10 mi
10:51 AM72 °FOvercast.10 mph71%30.05 "Hg10 mi
9:51 AM72 °FPartly sunny.8 mph73%30.05 "Hg10 mi
8:51 AM69 °FBroken clouds.3 mph84%30.03 "Hg10 mi
7:51 AM68 °FPartly sunny.6 mph87%30.03 "Hg10 mi
6:51 AM67 °FPassing clouds.5 mph90%30.01 "Hg8 mi
5:51 AM67 °FFog.7 mph93%30.00 "Hg5 mi
4:51 AM67 °FFog.3 mph90%30.01 "Hg4 mi
3:51 AM67 °FFog.No wind90%30.01 "Hg5 mi
2:59 AM67 °FFog.6 mph93%30.05 "Hg4 mi
2:51 AM67 °FFog.No wind93%30.02 "Hg5 mi
1:49 AM67 °FLight rain. Fog.No wind93%30.02 "Hg4 mi
12:51 AM66 °FLight rain. Fog.3 mph93%30.02 "Hg5 mi
11:58 PM
Aug 21
69 °FHeavy rain. Fog.7 mph90%30.09 "Hg1 mi
Weather by CustomWeather, © 2014

See weather overviewHow to use our weather pages